Location: Newark
(48.5667°N, 7.8167°E)
Time: 13:42:03
(UTC+00:00)

ISS - Pass Details

Date: 17 May 2021
Orbit: 419 x 422 km, 51.6° (Epoch: 25 June)

Event Time Altitude Azimuth Distance (km) Brightness Sun altitude
Rises 23:08:04 0° 285° (WNW) 2,374 0.3 -21.8°
Reaches altitude 10° 23:10:12 10° 290° (WNW) 1,509 -0.7 -21.8°
Maximum altitude 23:13:31 52° 8° (N) 534 -2.9 -21.8°
Enters shadow 23:14:51 31° 69° (ENE) 777 -2.3 -21.8°
